Wind_Speed
65 66 67 67 67 67 67 66 66 64 62 62 64 66 67 67 68 68 69 69 68 68 69 69 68 67 67 67 67 67 66 66 66 66 66 66 64 63
66 66 66 65 65 65 65 65 66 65 62 62 63 65 66 66 67 66 65 63 62 61 60 60 59 57 57 57 59 60 60 61 62 63 64 65 65 64
65 65 64 64 65 65 64 64 64 64 63 62 63 64 65 65 64 61 58 56 53 51 50 49 49 48 48 48 49 50 52 54 55 58 60 63 64 65
64 63 64 63 63 63 62 62 63 63 62 61 60 60 60 59 56 52 49 46 44 42 41 40 40 40 40 40 41 42 43 45 47 50 53 58 61 63
62 61 61 60 60 60 60 60 60 60 60 59 56 54 51 48 45 42 40 38 36 35 35 34 34 33 33 33 34 35 37 39 41 43 46 50 56 60
58 58 58 58 58 58 58 58 58 57 56 53 48 43 40 38 36 34 32 32 32 32 31 30 29 29 28 29 29 31 33 35 36 38 41 44 49 54
56 56 56 56 56 56 56 55 54 50 46 41 36 32 31 30 30 29 28 28 29 30 28 27 27 26 26 26 26 27 28 31 33 35 37 39 43 48
53 54 54 54 54 53 51 49 45 40 34 30 27 26 26 26 26 27 27 26 27 28 27 27 26 25 24 23 23 23 23 25 27 31 33 36 38 42
51 50 50 50 47 44 42 38 34 30 25 23 22 23 23 25 25 26 26 27 26 26 25 24 24 23 22 21 20 20 20 21 22 25 28 31 34 38
47 46 44 41 39 35 31 28 26 23 21 21 22 23 24 25 24 24 24 23 24 23 22 21 21 20 18 18 18 17 17 18 19 20 23 26 30 34
42 39 35 32 29 25 22 20 19 19 20 21 22 23 23 22 21 21 21 20 20 20 20 18 17 16 16 15 14 14 14 14 15 17 19 22 26 30
34 30 27 23 20 17 16 15 15 17 19 20 21 21 21 19 19 19 19 19 19 19 18 16 15 13 13 13 11 11 10 11 12 13 16 19 22 26
25 22 20 16 14 12 12 13 14 15 17 18 19 18 18 18 18 18 18 17 17 17 16 14 13 11 10 9 8 8 8 8 8 10 13 16 19 23
18 16 13 11 9 10 10 11 13 14 16 16 17 17 17 17 17 17 17 17 16 16 15 13 11 9 8 6 5 5 6 6 7 8 10 13 16 20
12 10 8 7 8 9 10 11 13 14 15 16 17 17 17 17 18 18 18 18 18 18 16 14 12 10 7 5 3 2 2 3 4 6 9 12 14 18
6 5 5 6 7 8 9 11 13 14 15 17 18 18 18 18 19 19 19 19 20 20 18 16 13 10 8 6 4 3 2 3 4 6 8 11 14 17
4 5 6 6 7 9 10 12 13 15 16 17 19 19 19 20 21 21 21 21 21 21 19 17 15 12 10 9 8 7 7 7 7 9 11 12 14 17
6 7 7 7 8 9 11 12 14 15 17 18 20 20 21 21 22 22 22 22 22 22 21 18 17 15 14 13 12 11 11 11 12 13 14 14 15 17
8 8 8 9 9 10 11 13 14 15 16 18 20 21 21 22 23 24 24 24 24 24 23 21 20 19 18 16 15 15 15 15 15 16 16 16 17 19
9 9 9 10 11 11 12 14 15 16 17 18 20 21 22 23 23 24 25 26 26 26 25 24 22 21 20 19 18 17 18 18 18 18 18 19 19 19
9 10 11 11 12 12 13 14 15 17 18 19 20 21 22 23 23 24 26 27 27 27 26 25 24 24 23 22 19 19 19 19 20 20 20 20 20 19
10 11 12 12 13 13 14 15 16 17 18 19 20 21 22 23 24 24 26 27 27 26 26 26 26 25 24 22 20 19 19 19 19 19 19 20 19 19
11 12 13 13 13 14 14 15 16 17 18 19 21 22 23 24 24 24 25 26 26 26 26 26 26 26 24 23 21 20 20 20 19 19 18 18 18 18
Wind_Direction
294 294 294 294 294 294 294 294 293 292 292 290 289 288 288 288 288 288 288 287 286 284 283 281 279 277 275 272 269 266 262 257 253 250 247 245 243 241
295 295 294 294 295 295 295 295 295 294 293 292 290 290 289 290 290 290 289 288 288 287 285 283 281 279 276 273 269 265 261 256 252 248 245 242 240 238
294 294 294 295 295 296 296 296 295 295 294 293 292 292 292 291 291 291 291 290 289 288 287 285 283 280 277 273 270 266 261 256 252 248 244 240 237 235
293 294 295 296 296 296 296 296 296 296 295 295 294 294 293 293 292 292 292 292 291 291 290 288 285 282 279 274 269 265 261 257 253 249 244 240 237 233
295 295 296 297 297 297 297 297 297 297 297 297 296 295 294 293 293 293 294 294 293 293 292 291 288 285 281 277 271 266 261 257 253 248 244 240 237 233
296 297 297 297 297 297 297 297 297 298 298 299 298 297 295 295 296 297 297 297 296 296 295 293 290 287 283 278 273 267 262 258 253 248 244 240 237 234
297 297 297 297 298 298 298 298 299 300 300 300 299 299 298 299 300 301 301 300 300 299 299 296 292 289 285 280 276 270 265 259 252 247 244 240 236 233
297 298 298 298 299 299 300 302 303 303 303 302 302 302 303 304 305 305 304 302 300 299 299 297 294 290 287 283 278 272 267 260 252 246 243 239 235 231
298 298 299 300 300 302 303 304 305 306 307 307 307 308 309 309 309 308 307 305 303 301 299 297 294 292 287 284 279 274 268 261 253 246 241 236 232 228
298 299 301 302 303 304 304 305 307 309 311 312 313 314 314 314 313 313 311 310 308 307 304 301 298 294 290 285 280 274 269 262 253 246 238 232 228 224
300 302 304 305 305 306 306 307 310 313 316 317 319 319 320 320 320 319 319 318 317 314 312 310 305 299 293 288 284 276 268 262 252 242 235 230 225 221
304 306 307 308 308 309 311 314 316 319 322 324 325 325 326 327 327 327 326 326 324 322 319 315 311 305 300 291 286 279 268 258 247 238 231 226 221 216
307 309 311 314 316 318 321 325 328 330 332 333 334 335 337 339 339 339 338 337 337 337 334 329 322 314 307 298 288 278 266 254 244 233 224 218 214 210
310 313 316 323 328 332 337 341 344 345 345 347 350 351 352 354 355 355 355 355 354 352 350 348 344 336 327 314 295 278 263 249 236 225 213 206 204 202
314 320 331 341 345 349 355 357 357 357 358 1 2 3 4 5 6 7 8 9 9 6 4 3 2 2 357 349 329 290 256 227 210 203 197 194 195 195
328 345 0 4 5 9 11 9 9 11 13 13 13 13 13 14 14 15 16 16 15 13 13 14 15 19 26 37 50 67 100 145 159 164 169 176 180 183
32 35 31 29 27 25 22 22 22 23 23 23 22 23 23 22 22 23 23 23 23 22 23 26 33 41 51 62 69 74 88 103 119 134 142 147 156 165
62 56 51 47 41 38 35 34 32 30 28 28 27 28 28 27 27 28 28 29 29 30 33 39 46 54 63 69 76 82 90 99 109 119 128 132 140 149
70 65 62 57 53 51 47 42 38 35 32 31 32 32 32 32 33 34 35 36 38 40 44 49 54 60 64 70 79 87 92 98 106 114 120 123 128 136
75 72 67 63 61 59 53 47 42 40 38 38 37 36 36 37 38 39 40 42 44 47 50 54 58 63 67 71 76 85 94 100 104 108 112 116 122 131
79 75 72 70 67 62 58 53 49 46 44 43 41 39 39 41 42 43 44 46 48 51 54 57 62 66 69 71 76 83 92 101 106 107 108 112 117 122
81 81 77 75 71 65 62 58 53 49 48 46 46 45 44 45 46 46 48 49 51 54 57 60 63 65 68 71 75 81 89 97 105 110 112 114 116 120
86 85 82 79 75 69 65 60 56 53 52 51 50 50 50 50 50 50 51 52 54 57 59 62 65 67 69 72 74 78 84 91 97 104 110 114 116 119
Height
5712 5707 5701 5695 5689 5683 5678 5672 5669 5666 5663 5655 5646 5637 5629 5624 5619 5614 5609 5604 5599 5595 5591 5587 5584 5581 5579 5578 5578 5579 5581 5585 5590 5596 5603 5610 5617 5625
5697 5691 5685 5679 5673 5666 5661 5654 5648 5645 5643 5637 5628 5620 5612 5606 5600 5595 5590 5584 5579 5574 5569 5566 5562 5559 5557 5555 5554 5555 5558 5562 5567 5573 5580 5587 5596 5604
5681 5676 5670 5664 5657 5650 5644 5638 5631 5626 5623 5619 5610 5602 5595 5588 5582 5576 5571 5566 5561 5556 5551 5547 5544 5541 5539 5537 5536 5536 5538 5541 5546 5552 5558 5566 5575 5584
5666 5660 5654 5648 5641 5635 5628 5622 5615 5608 5604 5601 5594 5586 5578 5571 5566 5560 5555 5550 5546 5542 5537 5533 5530 5526 5524 5522 5521 5521 5523 5525 5529 5534 5540 5548 5556 5564
5651 5645 5639 5633 5626 5619 5613 5606 5600 5593 5587 5583 5577 5570 5563 5556 5552 5547 5542 5538 5534 5530 5526 5522 5518 5515 5512 5510 5509 5509 5510 5512 5515 5519 5524 5530 5538 5547
5636 5630 5624 5618 5612 5606 5599 5592 5586 5579 5573 5567 5561 5556 5550 5545 5540 5537 5533 5528 5524 5520 5516 5513 5509 5506 5503 5501 5500 5499 5500 5501 5503 5507 5511 5517 5523 5531
5622 5616 5610 5604 5598 5592 5586 5579 5572 5566 5560 5555 5550 5545 5541 5536 5532 5528 5524 5520 5516 5511 5508 5504 5501 5498 5495 5493 5491 5490 5490 5491 5493 5496 5500 5505 5510 5518
5609 5602 5596 5591 5585 5579 5572 5566 5560 5555 5550 5546 5542 5538 5534 5529 5525 5521 5517 5513 5509 5505 5501 5497 5493 5490 5488 5486 5484 5483 5482 5482 5483 5486 5490 5494 5499 5506
5597 5591 5584 5578 5573 5567 5561 5555 5550 5546 5542 5539 5536 5532 5528 5524 5519 5515 5510 5505 5501 5497 5494 5490 5486 5483 5481 5479 5477 5476 5475 5475 5476 5478 5481 5485 5490 5496
5585 5579 5574 5568 5563 5558 5553 5549 5544 5541 5537 5534 5530 5526 5522 5517 5513 5508 5504 5499 5495 5490 5487 5484 5480 5477 5475 5473 5471 5470 5470 5469 5470 5471 5474 5477 5482 5488
5574 5569 5564 5559 5555 5551 5547 5544 5541 5537 5534 5530 5526 5521 5517 5512 5508 5503 5499 5494 5490 5485 5481 5478 5475 5472 5470 5468 5466 5465 5465 5465 5465 5466 5469 5472 5476 5481
5564 5560 5556 5553 5549 5546 5543 5541 5538 5535 5531 5526 5522 5518 5513 5508 5504 5499 5495 5490 5486 5481 5477 5473 5470 5468 5466 5464 5463 5462 5461 5461 5461 5463 5465 5467 5471 5476
5557 5554 5551 5548 5545 5543 5541 5538 5535 5532 5528 5524 5519 5515 5510 5506 5501 5496 5491 5487 5482 5478 5474 5470 5466 5464 5462 5461 5460 5459 5459 5459 5459 5460 5461 5464 5468 5472
5552 5550 5548 5546 5544 5542 5539 5537 5534 5530 5527 5522 5518 5513 5509 5504 5500 5495 5490 5485 5480 5476 5471 5467 5464 5461 5459 5458 5458 5457 5457 5457 5457 5458 5460 5462 5466 5470
5549 5547 5546 5544 5543 5541 5539 5536 5533 5530 5526 5522 5517 5513 5509 5504 5499 5494 5489 5485 5480 5475 5470 5466 5463 5460 5458 5457 5456 5456 5456 5456 5456 5457 5459 5461 5465 5469
5548 5547 5545 5544 5543 5541 5539 5536 5533 5530 5526 5522 5518 5513 5509 5504 5500 5495 5490 5485 5481 5476 5471 5467 5463 5461 5459 5457 5457 5456 5456 5456 5457 5458 5460 5462 5465 5469
5547 5547 5546 5545 5543 5542 5540 5537 5534 5531 5527 5523 5519 5515 5510 5506 5501 5497 5492 5487 5482 5478 5473 5469 5465 5462 5461 5460 5459 5458 5458 5458 5459 5460 5462 5464 5467 5471
5548 5547 5547 5545 5544 5543 5541 5538 5536 5533 5529 5525 5521 5517 5513 5508 5504 5499 5495 5490 5485 5480 5476 5472 5469 5467 5465 5464 5463 5462 5462 5463 5463 5464 5466 5469 5471 5474
5549 5549 5548 5547 5546 5544 5542 5540 5538 5535 5532 5528 5524 5520 5516 5512 5507 5503 5499 5494 5489 5485 5480 5477 5474 5472 5470 5469 5469 5468 5468 5468 5469 5471 5472 5474 5477 5480
5551 5550 5549 5548 5547 5546 5545 5543 5540 5537 5534 5531 5528 5524 5520 5516 5512 5508 5503 5499 5495 5491 5487 5484 5481 5479 5477 5477 5476 5475 5475 5475 5477 5478 5480 5482 5484 5488
5553 5552 5552 5551 5550 5549 5547 5546 5543 5541 5538 5535 5532 5528 5524 5521 5517 5513 5509 5505 5501 5498 5495 5492 5489 5487 5485 5485 5484 5483 5483 5483 5484 5486 5488 5490 5493 5495
5555 5555 5554 5554 5553 5552 5551 5549 5547 5545 5542 5539 5536 5533 5529 5526 5522 5519 5515 5512 5508 5505 5503 5500 5497 5495 5494 5493 5493 5492 5492 5492 5493 5494 5495 5498 5500 5503
5558 5558 5557 5557 5556 5555 5554 5553 5551 5549 5546 5544 5541 5538 5535 5532 5528 5525 5522 5519 5516 5513 5510 5508 5506 5504 5503 5502 5501 5501 5500 5501 5501 5503 5504 5505 5507 5510